TimeEDT,TemperatureF,Dew PointF,Humidity,Sea Level PressureIn,VisibilityMPH,Wind Direction,Wind SpeedMPH,Gust SpeedMPH,PrecipitationIn,Events,Conditions,WindDirDegrees,DateUTC
12:53 AM,80.1,75.0,85,30.02,10.0,SE,11.5,-,N/A,,Mostly Cloudy,130,2014-04-30 04:53:00
1:53 AM,80.1,73.9,81,30.00,10.0,SE,12.7,-,N/A,,Scattered Clouds,140,2014-04-30 05:53:00
2:53 AM,80.1,73.9,81,29.96,10.0,SE,15.0,-,N/A,,Scattered Clouds,140,2014-04-30 06:53:00
3:53 AM,80.1,73.9,81,29.96,10.0,SE,13.8,23.0,N/A,,Scattered Clouds,140,2014-04-30 07:53:00
4:53 AM,79.0,73.9,84,29.97,10.0,SSE,9.2,19.6,N/A,,Partly Cloudy,160,2014-04-30 08:53:00
5:53 AM,79.0,73.9,84,30.00,10.0,SSE,5.8,-,N/A,,Mostly Cloudy,150,2014-04-30 09:53:00
6:53 AM,79.0,73.0,82,30.01,10.0,SE,11.5,-,N/A,,Mostly Cloudy,140,2014-04-30 10:53:00
7:53 AM,80.1,72.0,76,30.02,10.0,SSE,9.2,-,N/A,,Scattered Clouds,150,2014-04-30 11:53:00
8:53 AM,82.9,72.0,69,30.01,10.0,SSE,12.7,-,N/A,,Scattered Clouds,160,2014-04-30 12:53:00
9:53 AM,84.0,72.0,67,30.04,10.0,SE,13.8,-,N/A,,Scattered Clouds,140,2014-04-30 13:53:00
10:53 AM,86.0,71.1,61,30.05,10.0,SE,19.6,-,N/A,,Mostly Cloudy,130,2014-04-30 14:53:00
11:53 AM,87.1,71.1,59,30.07,10.0,SE,17.3,-,N/A,,Mostly Cloudy,140,2014-04-30 15:53:00
12:53 PM,87.1,71.1,59,30.07,10.0,SSE,16.1,-,N/A,,Mostly Cloudy,150,2014-04-30 16:53:00
1:53 PM,88.0,70.0,55,30.07,10.0,SSE,17.3,-,N/A,,Mostly Cloudy,150,2014-04-30 17:53:00
2:53 PM,89.1,70.0,53,30.04,10.0,SE,17.3,-,N/A,,Mostly Cloudy,140,2014-04-30 18:53:00
3:53 PM,88.0,71.1,57,30.01,10.0,SE,19.6,-,N/A,,Mostly Cloudy,140,2014-04-30 19:53:00
4:53 PM,84.0,71.1,65,30.01,10.0,SE,19.6,-,N/A,,Mostly Cloudy,140,2014-04-30 20:53:00
5:53 PM,84.0,71.1,65,30.01,10.0,SSE,15.0,-,N/A,,Mostly Cloudy,160,2014-04-30 21:53:00
6:53 PM,82.9,72.0,69,30.02,10.0,SSE,11.5,-,N/A,,Mostly Cloudy,160,2014-04-30 22:53:00
7:53 PM,82.0,72.0,71,30.03,10.0,SSE,9.2,-,N/A,,Mostly Cloudy,160,2014-04-30 23:53:00
8:53 PM,81.0,73.0,77,30.04,10.0,SE,6.9,-,N/A,,Scattered Clouds,140,2014-05-01 00:53:00
9:53 PM,80.1,73.9,81,30.05,10.0,ESE,8.1,-,N/A,,Scattered Clouds,110,2014-05-01 01:53:00
10:53 PM,80.1,73.9,81,30.06,10.0,SE,10.4,-,N/A,,Scattered Clouds,130,2014-05-01 02:53:00
11:53 PM,80.1,73.9,81,30.05,10.0,SE,8.1,-,N/A,,Mostly Cloudy,130,2014-05-01 03:53:00